Dewpoint
45 45 46 46 46 46 46 41 33 45 48 36 35 30 31 33 34 35 35 38 38 38 33 30 29 29 27 28 29 29 28 31 26 27 28 26 29 27 32 30 29 31 26 22
45 45 46 46 46 46 44 38 38 45 44 29 31 30 31 34 30 30 36 37 38 39 37 31 30 31 30 30 29 29 31 32 28 27 29 31 26 29 29 34 33 29 28 27
45 45 45 46 46 46 45 37 30 37 41 38 33 29 28 28 35 30 33 38 37 38 38 39 31 30 33 32 30 38 35 30 26 21 23 29 29 29 31 31 31 28 29 27
44 44 45 46 46 46 45 37 33 34 29 33 32 31 28 26 28 35 35 35 38 37 36 37 35 35 34 33 35 34 34 30 30 29 24 26 28 29 31 31 32 30 28 29
44 45 46 46 46 47 44 33 33 36 29 32 31 30 26 28 29 32 33 33 34 37 36 38 38 38 38 33 32 33 36 32 32 29 29 27 28 28 31 31 32 32 32 31
44 44 46 46 46 47 42 40 37 34 32 31 30 28 25 26 32 35 35 36 36 35 36 36 38 43 41 44 37 34 35 34 33 29 30 31 29 29 27 31 32 33 32 33
44 45 47 46 46 48 43 41 37 34 30 30 28 27 27 27 29 30 35 36 38 38 43 43 44 45 45 45 45 44 35 34 33 30 32 27 31 31 30 28 30 33 33 34
45 47 47 46 47 49 44 43 38 33 29 30 29 30 28 30 32 33 32 33 38 42 40 39 36 36 38 40 43 43 44 37 33 32 32 34 36 35 33 31 30 31 35 35
45 46 47 47 48 49 45 43 43 37 31 30 32 31 31 29 29 29 32 38 41 42 36 35 30 31 35 33 39 42 42 42 36 32 31 30 32 37 38 37 32 32 31 33
47 45 44 48 49 47 44 43 43 38 31 33 35 30 32 33 32 28 33 35 38 39 32 30 32 31 37 32 33 35 37 36 32 32 31 34 38 37 40 35 34 37 36 32
47 44 47 47 46 45 44 41 42 38 33 34 36 36 33 35 32 29 30 35 36 35 30 31 32 32 34 34 35 37 35 33 32 32 31 29 37 36 38 38 35 36 39 38
47 45 44 46 46 45 43 40 42 40 35 32 36 35 35 34 35 34 35 34 33 34 31 34 34 32 36 33 31 38 35 36 34 35 33 38 38 35 36 36 33 35 38 39
46 47 44 44 45 45 42 38 39 38 34 30 31 28 35 38 38 37 30 33 35 36 37 33 33 33 36 32 31 35 38 39 35 36 38 40 41 40 36 35 34 39 40 40
45 46 46 47 46 46 44 39 38 37 32 23 24 35 34 36 37 36 36 36 38 38 38 32 31 29 35 34 34 34 37 38 38 36 37 40 40 40 38 36 40 40 39 39
43 45 45 45 47 45 42 42 41 39 32 22 25 35 34 35 36 36 36 36 35 35 33 31 30 35 36 36 35 33 39 36 36 34 38 37 39 39 38 38 38 39 39 39
44 44 44 44 44 41 38 33 39 41 39 32 23 30 32 35 35 35 36 35 34 35 33 33 35 37 35 32 32 36 39 40 39 37 39 38 41 41 37 36 39 39 39 39
43 44 44 43 40 41 36 35 38 43 42 32 28 27 32 34 36 35 35 36 36 35 34 33 33 34 38 32 31 36 38 41 39 40 38 37 37 37 36 36 38 40 39 40
41 42 44 43 42 40 37 40 42 42 36 35 27 24 29 35 31 30 34 32 33 33 34 35 33 35 35 30 35 36 39 40 39 38 36 37 37 33 35 36 36 36 36 37
40 41 40 40 36 34 36 40 42 42 36 30 29 22 17 34 31 33 31 32 28 33 31 32 34 32 30 33 35 36 40 40 40 34 31 31 31 31 33 32 32 31 32 33
40 39 36 29 36 40 40 36 33 32 32 32 29 31 25 32 31 31 31 31 29 26 30 33 30 30 34 34 34 34 40 38 35 34 33 33 32 31 31 30 29 30 30 30
36 32 32 37 40 36 34 29 28 30 27 30 30 31 28 35 29 29 31 28 29 24 27 27 27 27 29 30 30 33 34 35 36 33 36 35 33 28 27 28 29 28 28 29
32 34 36 36 32 29 27 26 27 26 25 29 29 31 33 33 34 30 30 27 28 24 29 27 24 26 29 30 30 31 31 31 30 30 31 33 30 29 29 29 29 30 32 31
38 35 31 30 26 14 20 17 22 19 26 30 31 30 32 33 34 30 29 25 24 30 23 24 26 28 31 31 31 32 33 33 33 33 34 33 32 32 32 31 32 31 30 30
29 25 10 17 15 20 22 23 21 26 28 31 31 30 30 31 28 29 24 27 27 22 17 20 26 30 31 32 32 31 31 32 32 32 32 32 31 31 30 31 31 30 29 29
24 23 11 18 20 21 24 25 27 29 33 32 31 28 29 27 25 26 23 21 19 20 16 24 29 31 31 31 31 31 31 31 30 31 30 31 31 31 31 30 31 30 30 27
24 24 21 22 18 14 19 25 26 32 30 26 27 25 21 22 24 20 17 17 15 21 29 29 29 31 31 31 30 31 31 30 30 30 30 30 31 31 31 31 31 30 30 30
26 20 14 24 20 15 17 23 26 29 23 17 24 17 17 22 18 17 24 18 26 29 29 25 28 29 28 28 29 30 30 30 30 30 30 30 30 31 31 31 31 31 30 29
Lifted_Index
1 1 1 1 1 1 1 1 1 1 0 0 0 0 1 1 1 1 2 2 2 1 1 2 3 4 5 6 6 5 5 4 4 4 4 4 4 3 2 2 2 2 2 2
1 1 1 1 1 1 1 1 1 1 1 1 0 1 1 1 1 1 2 2 2 1 1 1 2 4 5 5 5 5 4 3 3 3 3 4 4 3 3 2 2 2 2 2
2 2 2 2 2 2 1 1 1 1 1 1 1 1 1 1 1 1 2 2 2 1 1 1 2 3 4 4 4 4 3 3 3 3 3 3 3 3 3 2 2 2 2 3
3 3 3 3 2 2 1 1 1 1 2 2 2 1 1 1 1 1 2 2 2 1 1 1 1 2 2 3 4 4 3 3 3 4 4 3 3 2 2 2 2 2 2 3
4 4 3 3 2 2 1 1 1 2 2 2 2 2 1 1 1 1 1 2 2 2 2 1 1 1 1 2 3 3 3 3 3 4 4 3 2 3 2 2 2 2 3 3
4 4 4 3 3 2 1 1 1 2 2 2 2 2 1 1 1 1 1 1 2 2 2 2 1 1 1 1 1 2 2 2 3 4 3 3 3 4 4 3 3 3 3 4
5 4 4 3 3 1 1 1 2 2 2 2 2 2 1 1 1 1 1 1 2 2 2 1 1 1 1 0 1 1 2 2 2 3 2 2 4 5 5 4 4 4 4 4
5 4 3 3 2 1 1 2 2 2 2 2 2 1 1 1 1 1 2 2 2 2 2 2 1 1 1 1 1 1 2 2 2 2 2 2 4 5 5 4 4 4 4 4
4 3 2 2 1 1 1 2 2 1 1 2 1 1 1 1 1 2 2 3 3 3 3 2 1 1 1 1 1 1 2 2 1 1 1 2 4 4 4 3 4 4 4 4
4 3 2 1 1 1 2 2 2 1 1 2 1 1 1 2 2 2 3 3 3 4 3 2 1 1 1 1 1 1 2 2 1 1 1 2 3 3 2 2 3 3 3 3
3 3 3 2 2 2 2 2 2 2 2 2 2 2 2 2 2 2 3 3 3 4 3 2 2 1 1 1 1 1 1 1 1 1 1 2 2 2 2 2 2 2 2 2
3 3 3 3 3 3 3 3 3 2 2 2 2 2 2 2 2 3 3 3 4 4 3 3 2 2 1 1 1 1 1 2 2 2 2 2 2 2 2 2 2 2 2 1
4 3 3 3 3 3 3 3 3 3 3 3 3 3 3 3 3 3 3 3 3 4 4 3 3 2 2 1 1 1 1 1 1 2 2 2 2 2 2 2 3 3 2 2
4 3 3 2 2 2 2 2 2 2 2 3 3 3 3 3 3 3 3 3 3 4 4 4 4 3 3 2 1 1 1 1 1 1 1 1 2 2 2 3 3 3 3 3
4 3 3 2 2 2 1 2 2 2 3 3 3 3 3 3 3 3 3 3 3 4 4 4 4 4 4 2 2 2 2 1 1 1 1 1 2 2 2 2 3 3 3 3
4 3 3 2 2 2 2 2 2 3 3 3 3 3 3 3 3 3 3 3 3 3 3 4 4 4 4 3 2 1 1 1 1 1 1 1 2 2 2 2 2 3 3 3
3 3 3 3 3 3 2 2 3 3 3 2 2 2 2 2 2 2 2 2 2 2 3 4 4 4 4 3 2 1 1 1 1 1 1 1 2 2 2 2 2 3 3 3
4 3 3 3 3 3 3 3 3 3 2 2 2 2 2 2 2 2 2 2 2 2 3 4 4 4 4 3 2 1 1 1 1 1 1 1 1 1 2 2 2 2 2 3
4 4 3 3 3 3 3 3 2 2 2 2 2 1 1 1 1 1 1 1 1 2 2 3 3 3 3 3 2 2 1 1 1 1 1 1 1 1 1 1 2 2 2 2
3 3 3 3 3 3 3 2 2 2 2 2 2 1 1 1 1 1 1 1 1 1 2 2 2 2 2 2 2 2 1 1 1 1 1 1 1 1 1 1 2 2 2 2
3 3 3 3 3 3 2 2 2 2 2 2 2 2 2 2 2 2 2 2 1 1 1 1 1 1 1 1 1 1 1 1 1 1 1 1 1 1 1 2 2 3 3 3
3 3 3 3 3 3 2 2 2 2 2 2 2 2 2 2 2 2 2 2 2 2 1 1 1 1 1 1 1 1 1 1 1 1 2 2 2 2 3 3 4 4 4 4
2 2 2 2 2 2 2 2 2 2 2 2 2 2 2 3 3 2 2 2 2 2 2 1 1 1 1 2 1 1 1 1 1 2 2 2 3 3 4 4 5 5 5 5
1 1 1 2 3 3 3 3 3 2 2 2 2 3 3 3 3 2 2 2 2 2 1 1 2 2 2 3 3 2 2 2 2 2 2 3 3 4 5 5 6 6 6 6
1 1 2 2 3 3 3 3 3 2 2 2 3 3 3 3 3 3 3 2 2 2 2 3 3 4 4 4 4 3 3 4 4 4 4 4 5 5 5 6 6 6 7 7
1 2 2 2 3 3 3 3 2 2 2 3 3 3 4 4 4 4 3 3 3 3 4 4 5 5 5 5 5 5 5 5 6 6 6 6 6 6 6 6 6 7 7 7
2 2 2 2 2 2 2 2 2 2 2 3 3 3 3 4 4 4 4 4 4 4 4 5 5 5 5 5 5 5 6 6 6 6 6 6 6 6 6 6 6 6 7 7